STARLINK-31278, 59163

Orbit data source: Space-Track

STARLINK-31278, 59163 is a payload satellite owned by SpaceX/Seattle (US) in LEO that was launched on Mon, 04 Mar 2024 UTC via an FALCON 9 launch vehicle from the Air Force Eastern Test Range (AFETR). Payload-class satellites include a variety of spacecraft equipped with specific instruments for various scientific and technological missions. These include communications satellites like Starlink; space stations such as the ISS; scientific satellites like the Hubble; Earth observation satellites from companies like Planet Labs, Umbra, and HawkEye 360; GPS; miniature CubeSats for education and research; and military/defense satellites.

Loading next visibility...
Identifier
59163, 2024-044M
Orbit
LEO
Country
Flag of USUS
Related business
Manufacturer
SpaceX/Seattle
Mission
Operational Commercial Communications
Bus & Motor
STARLINK V2M, Unknown motor
Mass
730 kg wet, ~700 kg dry
Launch date (UTC)
2024-03-04 (2 years ago)
Launch vehicle
FALCON 9
Launch site
Air Force Eastern Test Range (AFETR)
Object type
Payload
Rocket body
Debris
Shape & HBR
Box + 2 Pan, 14.5 m
Radar Cross Section
33.884 m², Large (>1 m²)

Expand to show TLE details & history
Last TLE update: 10 hours ago

TLE from 10 hours ago
0 STARLINK-31278
1 59163U 24044M   25251.16803145 -.00004514  00000-0 -15466-3 0  9992
2 59163  43.0015  57.6099 0001401 279.4299  80.6394 15.27571088 85651
Epoch: 2025-09-08T04:01Z
TLE epoch observation values (Epoch: 2025-09-08T04:01:57.917Z)
Latitude
-0.00003°
Longitude
9.64152°
Altitude
482.695 km
Speed
7.626 km/s
True Right ascension
03h 50m 26s
True Declination
0° 00' 00"
Sunlit
Object was in daylight at epoch
Visualization orbit readout
Latitude
Unknown
Longitude
Unknown
Altitude
Unknown
Speed
Unknown
Apparent Right ascension
Unknown
Apparent Declination
Unknown
Sunlit
N/A
Visualization observer readout
Local Sidereal Time
06:22:40
Azimuth
Unknown
Elevation
Unknown
Doppler factor
Unknown
Orbital elements
Apogee altitude
485.982 km
Perigee altitude
484.059 km
Semi-major axis
6,863.158 km
Eccentricity
0.00014
Inclination
43.0015°
RAAN
57.6099°
Arg. of periapsis
279.4299°
True anomaly
80.65524°
Mean anomaly
80.6394°
Eccentric anomaly
80.64732°
Mean motion
3.81731 °/min
Orbital period
94.31 mins
BSTAR
-0.00015466
Loading maneuver chart data...
Computing Atmospheric mass density...
Loading historical data...
Loading historical data...
Loading historical data...
Loading historical data...
Loading historical data...
Loading historical data...
Loading historical data...

Documentation

Showing up to 5 results
|